Regional Weather Roundup
Issued by NWS Sterling, VA

Home | Current Version | Previous Version | Graphics & Text | Print | Product List | Glossary On
Versions: 1 2 3 4 5 6 7 8 9 10 11 12 13 14 15 16 17 18 19 20 21 22 23 24 25 26 27 28 29 30 31 32 33 34 35 36 37 38 39 40 41 42 43 44 45 46 47 48 49 50
000
ASUS41 KLWX 232011
RWRLWX

REGIONAL WEATHER ROUNDUP
NATIONAL WEATHER SERVICE BALTIMORE MD/WASHINGTON DC
300 PM EST MON JAN 23 2017

Note: "FAIR" indicates few or no clouds below 12,000 feet
with no significant weather and/or obstructions to visibility.
 TC=TEMPERATURE CELSIUS

 * =Non NWS site. Station does not report precipitation (e.g. rain,
    snow, etc.), thunder, or fog.

DCZ001-MDZ009-015-VAZ040>042-051-053>054-232100-
WASHINGTON METRO

CITY           SKY/WX    TMP DP  RH WIND       PRES   REMARKS
WASHINGTON NAT LGT RAIN  42  40  92 NE21G29   29.46S FOG
DULLES         LGT RAIN  39  37  92 N10       29.49R
ANDREWS AFB    LGT RAIN  42  39  92 NE18G30   29.42S FOG
FT BELVOIR     LGT RAIN  42  39  89 VRB6      29.46R
QUANTICO       RAIN      44  44 100 NE18G28   29.46R FOG
COLLEGE PARK*  CLOUDY    39  36  87 NE13G21   29.47R
LEESBURG*      LGT RAIN  39  39 100 N10G16    29.52R
GAITHERSBURG*  CLOUDY    37  34  87 NE7       29.53F

$$

MDZ006>007-011-014-232100-
BALTIMORE METRO

CITY           SKY/WX    TMP DP  RH WIND       PRES   REMARKS
BWI AIRPORT    LGT RAIN  40  39  97 NE17G26   29.49R FOG
MD SCIENCE CTR   N/A     41  38  89 MISG      29.49R
MARTIN STATE   RAIN      41  39  93 NE10G20   29.52R
ANNAPOLIS      CLOUDY    43  39  86 NE13G22   29.46S
FORT MEADE*    CLOUDY    37  37 100 NE14G21   29.51F WCI  29

$$

MDZ012-015-019>023-232100-
MARYLAND EASTERN SHORE

CITY           SKY/WX    TMP DP  RH WIND       PRES   REMARKS
OCEAN CITY     CLOUDY    50  48  93 NE20G29   29.34R
SALISBURY      LGT RAIN  47  46  97 NE20G29   29.36R FOG
BAY BRIDGE AP* CLOUDY    43  39  87 NE20G30   29.45S
CAMBRIDGE*     CLOUDY    43  41  93 NE16G33   29.37S
EASTON*        CLOUDY    45  41  87 E25G33    29.45R FOG

$$

MDZ017>025-232100-
SOUTHERN MARYLAND

CITY           SKY/WX    TMP DP  RH WIND       PRES   REMARKS
PATUXENT RIVER CLOUDY    46  43  89 NE16G32   29.37R
ST INIGOES     LGT RAIN  47  44  90 N17G30    29.34R
LEONARDTOWN*   CLOUDY    43  41  93 NE9G16    29.39S

$$

MDZ003>005-232100-
NORTH CENTRAL MARYLAND

CITY           SKY/WX    TMP DP  RH WIND       PRES   REMARKS
FREDERICK*     CLOUDY    37  37 100 N7        29.58R FOG
HAGERSTOWN APT RAIN      37  32  82 NE12      29.58R
WESTMINSTER*   LGT SNOW  36  34  93 E13G20    29.52R WCI  27

$$

MDZ501>502-232100-
WESTERN MARYLAND

CITY           SKY/WX    TMP DP  RH WIND       PRES   REMARKS
OAKLAND*       FOG       32  32 100 E16G22    29.43R VSB 1/4 WCI  21
CUMBERLAND*    CLOUDY    37  36  93 CALM      29.61R

$$

VAZ025>031-232100-
SHENANDOAH VALLEY

CITY           SKY/WX    TMP DP  RH WIND       PRES   REMARKS
WINCHESTER*    LGT RAIN  34  32  93 N7        29.53R
FRONT ROYAL*   CLOUDY    34  34 100 N6        29.51R
LURAY*         DRIZZLE   37  37 100 NE14G24     N/A  WCI  29
NEW MARKET*    CLOUDY    37  35  93 NE15G21   29.47S WCI  27
STAUNTON*      CLOUDY    38  36  91 N17       29.45R WCI  29
WAYNESBORO*    CLOUDY    39  38  94 N13G18    29.40S

$$

WVZ021-048>050-054>055-232100-
EASTERN WEST VIRGINIA PANHANDLE

CITY           SKY/WX    TMP DP  RH WIND       PRES   REMARKS
MARTINSBURG    RAIN      35  34  96 N9        29.54S FOG     WCI  28
PETERSBURG*    LGT SNOW  35  34  96 CALM      29.53S

$$

VAZ036>039-050-232100-
CENTRAL FOOTHILLS

CITY           SKY/WX    TMP DP  RH WIND       PRES   REMARKS
CHARLOTTESVILL LGT RAIN  44  39  82 NE20G31   29.41R
CULPEPER*      RAIN      43  41  95 N17G24    29.47F
ORANGE*          N/A     43  41  93 N15G29    29.44R
GORDONSVILLE*  CLOUDY    42  40  90 N15G28    29.40S
WARRENTON*     LGT RAIN  42  38  87 N14       29.46S

$$

VAZ055>057-232100-
NORTH AND CENTRAL PIEDMONT

CITY           SKY/WX    TMP DP  RH WIND       PRES   REMARKS
FREDERICKSBRG* DRIZZLE   44  44 100 N13G24    29.41S
STAFFORD*      DRIZZLE   42  42 100 N14       29.47R

$$

NCZ024-NYZ072-PAZ021-071-VAZ022-071-232100-
OTHER REGIONAL OBSERVATIONS

CITY           SKY/WX    TMP DP  RH WIND       PRES   REMARKS
NEW YORK CITY  CLOUDY    40  31  70 E24G38    29.70F
PHILADELPHIA   RAIN      39  35  86 NE18G43   29.55S FOG
PITTSBURGH     LGT RAIN  42  40  92 NE9       29.53S
ROANOKE        LGT RAIN  46  43  89 N13       29.37R
RICHMOND       LGT RAIN  49  48  97 N22G29    29.30R VSB 1
RALEIGH        CLOUDY    59  46  62 NW8       29.25R

$$

ANZ530>537-232100-
MARINE OBSERVATIONS

STATION/POSITION TIME  TEMP    WIND        PRES
                       AIR SEA DIR/SP/G
                 (UTC) (F)     (DEG/KT/KT) (MB)
THOMAS PT LIGHT  2000   43 40   50/ 25/ 30   N/A
BALT KEY BRIDGE  1948   40      40/ 18/ 22  998.2R
COVE POINT       1948   45      80/ 29/ 36  994.6F
LEWISETTA        1948   47 45   60/ 18/ 26  992.4F
SOLOMONS ISLAND  1942   45 42   20/ 11/ 17   N/A
PINEY POINT      1948           70/ 19/ 26   N/A

$$




USA.gov is the U.S. government's official web portal to all federal, state and local government web resources and services.